Regional Weather Roundup
Issued by NWS

Home | Current Version | Previous Version | Graphics & Text | Print | Product List | Glossary Off
Versions: 1 2 3 4 5 6 7 8 9 10 11 12 13 14 15 16 17 18 19 20 21 22 23 24 25 26 27 28 29 30 31 32 33 34 35 36 37 38 39 40 41 42 43 44 45 46 47 48 49 50

000
ASUS43 KLOT 301801
RWRIL

ILLINOIS REGIONAL WEATHER ROUNDUP
NATIONAL WEATHER SERVICE CHICAGO/ROMEOVILLE IL
100 PM CDT MON MAR 30 2015

NOTE: "FAIR" INDICATES FEW OR NO CLOUDS BELOW 12,000 FEET WITH NO
SIGNIFICANT WEATHER AND/OR OBSTRUCTIONS TO VISIBILITY.

* THESE STATIONS ARE NOT UNDER NWS QUALITY CONTROL. THEY ALSO MAY NOT
  REPORT WEATHER SUCH AS PRECIPITATION OR FOG.

ILZ001-002-007-009-015-016-024-301900-
NORTHWEST ILLINOIS

CITY           SKY/WX    TMP DP  RH WIND       PRES   REMARKS
MOLINE         SUNNY     66  26  22 W15G23    30.02F
6HR MIN TEMP:  31; 6HR MAX TEMP:  67;

STERLING*      SUNNY     64  34  32 NW23      30.02F
$$

ILZ003-004-008-010-011-017-018-301900-
NORTH CENTRAL ILLINOIS

CITY           SKY/WX    TMP DP  RH WIND       PRES   REMARKS
ROCKFORD       PTSUNNY   60  30  32 W21       30.01F
6HR MIN TEMP:  34; 6HR MAX TEMP:  60;

$$

ILZ005-006-012>014-019>023-301900-
NORTHEAST ILLINOIS

CITY           SKY/WX    TMP DP  RH WIND       PRES   REMARKS
CHICAGO-OHARE  PTSUNNY   57  28  33 W17       30.01F
6HR MIN TEMP:  34; 6HR MAX TEMP:  58;

CHICAGO-MIDWAY PTSUNNY   58  27  30 W18G28    30.03F
6HR MIN TEMP:  37; 6HR MAX TEMP:  60;

AURORA         SUNNY     60  30  32 W17       30.02F
6HR MIN TEMP:  30; 6HR MAX TEMP:  60;

WAUKEGAN       FAIR      56  27  32 VRB7G24   29.98F
6HR MIN TEMP:  35; 6HR MAX TEMP:  57;

DUPAGE AIRPORT SUNNY     58  30  34 W17G23    30.01F
6HR MIN TEMP:  33; 6HR MAX TEMP:  58;

WHEELING       PTSUNNY   58  26  29 W15       30.02F
6HR MIN TEMP:  36; 6HR MAX TEMP:  58;

NORTHERLY ISL    N/A     56  24  29 W7          N/A
$$

LMZ740>746-301900-
SOUTHERN LAKE MICHIGAN

STATION/POSITION SKY/WX   TEMP    WIND        PRES    VSBY  WAVE
                          AIR SEA DIR/SP/G                  HT/PER
                          (F)     (DEG/KT/KT) (MB)    (MI)  (FT/S)
HARRISON CRIB              51     280/ 13/ 17   N/A
BURNHAM HARBOR             54     260/  5/ 13   N/A
CALUMET HARBOR             55     240/  8/ 16 1016.0F
BURNS HARBOR               44     260/  8/ 10 1018.3F
MICHIGAN CITY              43     220/ 15/ 15   N/A
$$

ILZ025>027-034>036-040-047-049-050-058-095>099-301900-
WEST-CENTRAL ILLINOIS

CITY           SKY/WX    TMP DP  RH WIND       PRES   REMARKS
QUINCY         SUNNY     65  29  25 W13       30.10F
$$

ILZ028>032-037-038-041>044-048-051>054-059>061-301900-
CENTRAL ILLINOIS

CITY           SKY/WX    TMP DP  RH WIND       PRES   REMARKS
DECATUR        SUNNY     63  29  27 W13       30.11F
PEORIA         SUNNY     66  27  23 W20       30.07F
6HR MIN TEMP:  34; 6HR MAX TEMP:  67;

SPRINGFIELD    SUNNY     65  29  25 W13       30.10F
6HR MIN TEMP:  34; 6HR MAX TEMP:  65;

TAYLORVILLE    NOT AVBL
$$

ILZ033-039-045-046-055>057-062-063-301900-
EAST-CENTRAL ILLINOIS

CITY           SKY/WX    TMP DP  RH WIND       PRES   REMARKS
CHAMPAIGN      SUNNY     60  32  34 W16G23    30.11F
MATTOON        SUNNY     60  31  33 W8        30.12F
$$

ILZ079-100>102-301900-
SOUTHWEST ILLINOIS

CITY           SKY/WX    TMP DP  RH WIND       PRES   REMARKS
CAHOKIA*       SUNNY     64  29  26 VRB6      30.17F
$$

ILZ064>066-069>071-074>076-080>082-084>086-088>090-092>094-301900-
SOUTH-CENTRAL ILLINOIS

CITY           SKY/WX    TMP DP  RH WIND       PRES   REMARKS
CARBONDALE     SUNNY     62  26  25 N10       30.19F
6HR MIN TEMP:  41; 6HR MAX TEMP:  63;

MARION         MOSUNNY   63  28  27 NW8       30.19F
MT. VERNON     SUNNY     63  30  29 S6        30.18F
$$

ILZ067-068-072-073-078-083-087-091-301900-
SOUTHEAST ILLINOIS

CITY           SKY/WX    TMP DP  RH WIND       PRES   REMARKS
LAWRENCEVILLE  MOSUNNY   60  33  36 MISG      30.16F
$$

ABBREVIATIONS USED IN REMARKS
   TC - TEMPERATURE IN CELSIUS
  WCI - WIND CHILL INDEX
   HX - HEAT INDEX
  VSB - VISIBILITY
$$




USA.gov is the U.S. government's official web portal to all federal, state and local government web resources and services.